HIBARI (49400 NORAD) Tracking and Keplerian Element Data

This shows tracking and keplerian element data for the satellite.

Feedback or suggestion? Click here.




ElementValue
Catalog49400
NameHIBARI
Epoch Orbit1022
Epoch Day16.15716496
Epoch Year2022
RAAN78.9967
Inclination97.5599
Eccentricity0.002252
Argument of Perigee29.8409
Mean Anonmoly330.4095
Mean Motion15.02261328
Decay Rate1.232E-05
L11 49400U 21102F 22016.15716496 .00001232 00000+0 97465-4 0 9995
L22 49400 97.5599 78.9967 0022520 29.8409 330.4095 15.02261328 10221

Live tracking and technical data element details for HIBARI (NORAD 49400). HIBARI can be tracked NOW for your location showing map with azimuth and elevation plus other details from your city location.

Track the satellite on the map from your city or location and see movement details for azimuth, elevation, latitude, longitude, range, height, and movement on the map or in text.







IsCatalogInMostPopularTable: catalog: 49400, numindb: 12
Update: records affected: 1



GetName: 49400 HIBARI

Hit Count: updated at: Thu, 20 Jan 2022 16:27:23 GMT